Torna al catalogo

DELTA 1 DEB

AttivoSSO
NORAD 7166·DEBRIS·🇺🇸 United States

Lanciato Nov 6, 1973 da Vandenberg Space Force Base

Loading…

Prossimi Passaggi (prossime 24 ore)

TLE

AggiornatoSource: Space-Track

Epoca: Sep 13, 2026, 23:20 UTC

1 07166U 73086EE  26256.97277437  .00000023  00000-0  50651-3 0  9996
2 07166 102.2438 263.8671 0014743  99.4886 319.3000 12.41505634391637

Traccia DELTA 1 DEB in tempo reale con AllMySat

Download on the App Store